Погода в Усише

Россия / Республика Дагестан     42°15′01″N   47°23′28″E
темп.,
°C
ветер,
м/с
пор.,
м/с
влажн.,
%
обл.,
%
осадки,
мм/ч
давл.,
гПа
погр.,
м
11 апреля, вс
вс1100:00+7юв348059 0.0 1017105
03:00+5ю337644 0.0 101832
06:00+7ююв32585 0.0 101828
09:00+14вюв5103996 0.0 10161091
12:00+15вюв610377 0.0 10151133
15:00+13вюв61041100 0.0 1014972
18:00+10юв3460100 0.0 1014150
21:00+8ю226642 0.0 101524
12 апреля, пн
пн1200:00+9зюз226677 0.0 101322
03:00+7ююв2277100 0.0 101417
06:00+7ююв1181100 0.0 101516
09:00+12вюв335928 0.0 1015626
12:00+13в56540 0.0 1015928
15:00+11всв456267 0.5 1016923
18:00+8всв227630 0.3 1019434
21:00+5в01940 0.3 102111
13 апреля, вт
вт1300:00+4ююв22901 0.0 102017
03:00+4ююв22938 0.0 102029
06:00+4юв2394100 0.0 102193
09:00+9вюв457461 0.0 1019588
12:00+11вюв556342 0.0 1018880
15:00+11вюв556227 0.1 1017885
18:00+7вюв347264 0.0 1018388
21:00+5юв338261 0.0 102070
14 апреля, ср
ср1400:00+4юв346771 0.0 101867
03:00+4ююв337277 0.0 101531
06:00+5ююв2267100 0.0 101438
09:00+8вюв344994 0.0 1014519
12:00+8вюв41061100 0.4 10121132
15:00+6св118393 1.3 1014602
18:00+4зсз229298 1.6 1016435
21:00+3з22896 1.6 101726
15 апреля, чт
чт1500:00+2з228889 0.0 101818
03:00+2з3274100 0.0 101828
06:00+3з2259100 0.0 101635
09:00+10всв21434 0.0 1014953
12:00+12всв343813 0.0 10121946
15:00+12всв325249 0.4 1011878
18:00+8всв228019 1.2 1013230
21:00+6зюз11861 1.5 101510